Home > Weather > Ludwigsfelde > Past weeks

Flag for Germany Past Weather in Ludwigsfelde, Brandenburg, Germany — Yesterday and Last 2 Weeks

Now
68 °F

Sprinkles. Partly cloudy.


Feels Like: 68 °F
Forecast: 59 / 74 °F
Wind: 16 mph from West

Location: Berlin-Schoenefeld

Current Time: Jun 26, 2016 at 3:01:04 AM

Latest Report: Jun 26, 2016 at 2:20 AM


Visibility: N/A

Pressure: 29.86 "Hg

Humidity: 88%

Dew Point: 64 °F

Location of LudwigsfeldeLocation

Past Weather in Ludwigsfelde — Graph

°F

Ludwigsfelde Temperature Yesterday

Maximum temperature yesterday: 91 °F (at 3:20 PM)
Minimum temperature yesterday: 68 °F (at 3:50 AM)
Average temperature yesterday: 79 °F

High & Low Weather Summary for the Past Weeks

 TemperatureHumidityPressure
High93 °F (Jun 24, 2:50 PM)100% (Jun 13, 6:50 AM)30.24 "Hg (Jun 13, 6:50 AM)
Low48 °F (Jun 20, 4:20 AM)23% (Jun 11, 5:20 PM)29.47 "Hg (Jun 14, 4:20 PM)
Average66 °F71%29.87 "Hg
* Reported Jun 11 1:20 AM — Jun 26 1:50 AM, Ludwigsfelde, Weather by CustomWeather, © 2016

Note: Actual official high and low records may vary slightly from our data, if they occured in-between our weather recording intervals... More about our weather records

Advertising

Ludwigsfelde Weather History for the Previous 24 Hours

Scroll right to see more
 ConditionsComfort  
Time TempWeatherWind HumidityBarometerVisibility
1:50 AM
Sun, Jun 26
70 °FPartly cloudy.14 mph83%29.83 "HgN/A
1:20 AM70 °FPartly cloudy.12 mph83%29.83 "HgN/A
12:50 AM72 °FClear.9 mph78%29.83 "Hg10 mi
12:20 AM70 °FSprinkles. Partly cloudy.8 mph88%29.80 "HgN/A
11:50 PM
Sat, Jun 25
72 °FClear.6 mph83%29.80 "Hg10 mi
11:20 PM72 °FClear.6 mph78%29.80 "Hg10 mi
10:50 PM72 °FClear.8 mph83%29.80 "Hg10 mi
10:20 PM73 °FBroken clouds.5 mph74%29.80 "HgN/A
9:50 PM73 °FBroken clouds.8 mph78%29.77 "HgN/A
9:20 PM75 °FBroken clouds.9 mph74%29.80 "HgN/A
8:50 PM77 °FBroken clouds.9 mph69%29.80 "HgN/A
8:20 PM77 °FBroken clouds.9 mph74%29.77 "HgN/A
7:50 PM79 °FBroken clouds.15 mph70%29.77 "HgN/A
7:20 PM81 °FBroken clouds.14 mph66%29.77 "HgN/A
6:50 PM82 °FBroken clouds.21 mph62%29.74 "HgN/A
6:20 PM84 °FBroken clouds.21 mph58%29.74 "HgN/A
5:50 PM88 °FBroken clouds.14 mph49%29.71 "HgN/A
5:20 PM90 °FScattered clouds.13 mph46%29.71 "HgN/A
4:50 PM91 °FScattered clouds.13 mph38%29.71 "HgN/A
4:20 PM91 °FPassing clouds.10 mph38%29.71 "HgN/A
3:50 PM91 °FPassing clouds.14 mph41%29.71 "HgN/A
3:20 PM91 °FPassing clouds.13 mph41%29.74 "HgN/A
2:50 PM90 °FScattered clouds.9 mph41%29.74 "HgN/A
2:20 PM90 °FPassing clouds.7 mph49%29.74 "HgN/A
1:50 PM88 °FThundershowers. Scattered clouds.6 mph52%29.77 "HgN/A
1:20 PM88 °FPassing clouds.8 mph49%29.80 "HgN/A
12:50 PM90 °FPassing clouds.8 mph49%29.80 "HgN/A
12:20 PM88 °FPassing clouds.6 mph52%29.80 "HgN/A
11:50 AM88 °FPassing clouds.6 mph52%29.80 "HgN/A
11:20 AM86 °FPassing clouds.3 mph55%29.83 "HgN/A
10:50 AM84 °FPassing clouds.6 mph58%29.83 "HgN/A
10:20 AM82 °FPassing clouds.7 mph58%29.83 "HgN/A
9:50 AM81 °FPassing clouds.3 mph62%29.86 "HgN/A
9:20 AM79 °FPassing clouds.5 mph65%29.86 "HgN/A
8:50 AM79 °FPassing clouds.3 mph61%29.86 "HgN/A
8:20 AM77 °FPassing clouds.6 mph65%29.86 "HgN/A
7:50 AM75 °FSunny.8 mph69%29.86 "Hg10 mi
7:20 AM73 °FPassing clouds.5 mph74%29.86 "HgN/A
6:50 AM72 °FSunny.6 mph78%29.89 "Hg10 mi
6:20 AM70 °FSunny.3 mph83%29.89 "Hg10 mi
5:50 AM68 °FSunny.2 mph88%29.89 "Hg10 mi
5:20 AM68 °FClear.6 mph88%29.89 "Hg10 mi
4:50 AM68 °FClear.7 mph88%29.89 "Hg10 mi
4:20 AM68 °FClear.7 mph88%29.89 "Hg10 mi
3:50 AM68 °FClear.7 mph83%29.92 "Hg10 mi
3:20 AM70 °FClear.7 mph83%29.92 "Hg10 mi
Weather by CustomWeather, © 2016

See weather overviewHow to use our weather pages